Weather History for KAEG - June, 2013

Change the Weather History Date:

Wednesday, June 26, 2013

  Actual Average Record
Temperature  
Mean Temperature 78 °F -  
Max Temperature 95 °F - - ()
Min Temperature 62 °F - - ()
Cooling Degree Days 14    
Growing Degree Days 28 (Base 50)    
Moisture  
Dew Point 20 °F    
Average Humidity 13    
Maximum Humidity 19    
Minimum Humidity 6    
Precipitation  
Precipitation 0.00 in - - ()
Sea Level Pressure  
Sea Level Pressure 30.16 in    
Wind  
Wind Speed 7 mph (WNW)    
Max Wind Speed 12 mph    
Max Gust Speed 17 mph    
Visibility 10 miles    
Events      
T = Trace of Precipitation, MM = Missing Value Source: NWS Daily Summary

Daily Weather History Graph

Daily Weather History Graph

Search for Another Location

Airport or City:

Trip Planner

Search our weather history database for the weather conditions in past years. The results will help you decide how hot, cold, wet, or windy it might be!

Date:

Astronomy

Jun. 26, 2013 Rise Set
Actual Time 5:54 AM MDT 8:25 PM MDT
Civil Twilight 5:24 AM MDT 8:55 PM MDT
Nautical Twilight 4:48 AM MDT 9:32 PM MDT
Astronomical Twilight 4:07 AM MDT 10:12 PM MDT
Moon 11:00 PM MDT (6/26) 9:40 AM MDT (6/26)
Length of Visible Light 15h 30m
Length of Day
14h 30m
Waning Gibbous, 85% of the Moon is Illuminated
Jun 26
Waning Gibbous
Jun 29
Last Quarter
Jul 8
New
Jul 15
First Quarter
Jul 22
Full

Hourly Weather History & Observations

Time (MDT) Temp. Dew Point Humidity Pressure Visibility Wind Dir Wind Speed Gust Speed Precip Events Conditions
12:15 AM 69.8 °F 17.6 °F 14% 30.12 in 10.0 mi NNW 8.1 mph - N/A   Unknown
12:35 AM 73.4 °F 19.4 °F 13% 30.12 in 10.0 mi NW 10.4 mph - N/A   Unknown
12:55 AM 69.8 °F 19.4 °F 15% 30.12 in 10.0 mi NW 8.1 mph - N/A   Unknown
1:15 AM 68.0 °F 19.4 °F 16% 30.12 in 10.0 mi NW 11.5 mph - N/A   Unknown
1:35 AM 69.8 °F 19.4 °F 15% 30.12 in 10.0 mi WNW 10.4 mph - N/A   Unknown
1:55 AM 71.6 °F 19.4 °F 14% 30.13 in 10.0 mi WNW 10.4 mph - N/A   Unknown
2:15 AM 68.0 °F 19.4 °F 16% 30.13 in 10.0 mi West 8.1 mph - N/A   Unknown
2:35 AM 66.2 °F 19.4 °F 17% 30.13 in 10.0 mi West 10.4 mph - N/A   Unknown
2:55 AM 66.2 °F 19.4 °F 17% 30.13 in 10.0 mi West 10.4 mph - N/A   Unknown
3:15 AM 66.2 °F 19.4 °F 17% 30.13 in 10.0 mi West 10.4 mph - N/A   Unknown
3:35 AM 66.2 °F 19.4 °F 17% 30.13 in 10.0 mi West 9.2 mph - N/A   Unknown
3:55 AM 66.2 °F 21.2 °F 18% 30.14 in 10.0 mi NNE 6.9 mph - N/A   Unknown
4:15 AM 62.6 °F 19.4 °F 19% 30.15 in 10.0 mi Calm Calm - N/A   Unknown
4:35 AM 64.4 °F 19.4 °F 18% 30.15 in 10.0 mi Calm Calm - N/A   Unknown
4:55 AM 64.4 °F 21.2 °F 19% 30.16 in 10.0 mi Calm Calm - N/A   Unknown
5:15 AM 64.4 °F 19.4 °F 18% 30.17 in 10.0 mi Calm Calm - N/A   Unknown
5:35 AM 62.6 °F 17.6 °F 18% 30.18 in 10.0 mi Calm Calm - N/A   Unknown
5:50 AM 62.6 °F 17.6 °F 18% 30.18 in 10.0 mi Calm Calm - N/A   Clear
6:50 AM 64.4 °F 19.4 °F 18% 30.20 in 10.0 mi NW 9.2 mph - N/A   Clear
7:50 AM 71.6 °F 23.0 °F 16% 30.23 in 10.0 mi Calm Calm - N/A   Clear
8:50 AM 75.2 °F 23.0 °F 14% 30.24 in 10.0 mi Calm Calm - N/A   Clear
10:50 AM 82.4 °F 24.8 °F 12% 30.25 in 10.0 mi Calm Calm - N/A   Clear
11:50 AM 86.0 °F 24.8 °F 11% 30.24 in 10.0 mi WSW 8.1 mph - N/A   Clear
12:50 PM 89.6 °F 23.0 °F 9% 30.22 in 10.0 mi NNW 9.2 mph 17.3 mph N/A   Clear
1:50 PM 91.4 °F 23.0 °F 8% 30.20 in 10.0 mi North 6.9 mph 17.3 mph N/A   Clear
2:50 PM 91.4 °F 23.0 °F 8% 30.18 in 10.0 mi WNW 9.2 mph - N/A   Clear
3:50 PM 93.2 °F 21.2 °F 7% 30.16 in 10.0 mi WSW 6.9 mph - N/A   Clear
4:50 PM 95.0 °F 19.4 °F 6% 30.14 in 10.0 mi West 9.2 mph - N/A   Clear
5:50 PM 93.2 °F 19.4 °F 7% 30.12 in 10.0 mi Variable 6.9 mph - N/A   Clear
6:50 PM 93.2 °F 19.4 °F 7% 30.12 in 10.0 mi SW 6.9 mph - N/A   Clear
7:50 PM 91.4 °F 17.6 °F 7% 30.12 in 10.0 mi SSW 8.1 mph - N/A   Clear
8:50 PM 82.4 °F 17.6 °F 9% 30.14 in 10.0 mi NW 6.9 mph - N/A   Partly Cloudy
10:15 PM 77.0 °F 19.4 °F 12% 30.17 in 10.0 mi SW 4.6 mph - N/A   Unknown
10:35 PM 82.4 °F 23.0 °F 11% 30.17 in 10.0 mi NW 3.5 mph - N/A   Unknown
10:55 PM 77.0 °F 19.4 °F 12% 30.18 in 10.0 mi SW 3.5 mph - N/A   Unknown
11:15 PM 80.6 °F 23.0 °F 12% 30.18 in 10.0 mi ENE 3.5 mph - N/A   Unknown
11:35 PM 80.6 °F 23.0 °F 12% 30.18 in 10.0 mi Calm Calm - N/A   Unknown